DMSP 5D-2 F13 DEB, 42300

Orbit data source: Space-Track

DMSP 5D-2 F13 DEB, 42300 is space debris in SSO originally from a launch on Fri, 24 Mar 1995 UTC launched from the Air Force Western Test Range (AFWTR). Debris objects in space refer to the collection of defunct objects orbiting the Earth. Examples of debris include non-operational satellites, rocket bodies, and fragments generated from explosions, collisions, or faulty payload assembly.

Loading next visibility...
Identifier
42300, 1995-015HS
Orbit
SSO
Last TLE update
19 hours ago
Origin
Manufacturer
Unknown
Mission
Spacecraft
Bus & Motor
Unknown
Mass
Unknown
Launch date (UTC)
1995-03-24 (30 years ago)
Launch vehicle
Unknown
Launch site
Air Force Western Test Range (AFWTR)
Object type
Payload
Rocket body
Debris
Shape & HBR
Unknown
Radar Cross Section
Small (<0.1 m²)

Expand to show TLE details & history

TLE from 19 hours ago
0 DMSP 5D-2 F13 DEB
1 42300U 95015HS  25128.88030147  .00006384  00000-0  19886-2 0  9993
2 42300  98.6114 164.7474 0027786  65.7188 294.6898 14.41020650442805
Epoch: 2025-05-08T21:07Z
Definitive object data (Epoch: 2025-05-08T21:07:38.047Z)
Latitude
-0.00003°
Longitude
-19.10558°
Altitude
749.839 km
Speed
7.484 km/s
True Right ascension
10h 58m 59s
True Declination
0° 00' 00"
Sunlit
Object was in full shadow at TLE epoch
Visualization TLE readout
Latitude
-55.13763°
Longitude
149.22132°
Altitude
796.119 km
Speed
7.444 km/s
Apparent Right ascension
16h 30m 19s
Apparent Declination
-73° 08' 48"
Sunlit
Object is in daylight
Visualization observer readout
Local Sidereal Time
00:43:21
Azimuth
200.987° SSW
Elevation
-47.396°
Doppler factor
1
Orbital elements
Apogee altitude
772.067 km
Perigee altitude
732.442 km
Semi-major axis
7,130.391 km
Eccentricity
0.0027786
Inclination
98.6114°
RAAN
164.7474°
Arg. of periapsis
65.7188°
True anomaly
294.40008°
Mean anomaly
294.6898°
Eccentric anomaly
294.54498°
Mean motion
3.60473 °/min
BSTAR
0.0019886
Orbital period
99.87 mins
Loading maneuver chart data...
Loading SW <> Apogee altitude chart data...

DMSP 5D-2 F13 DEB Visibility forecast

Observer location: undefined°, undefined°

Span
Click to sort rows by Start time (UTC) header in descending order
Start Az.
Max El. time (UTC)
Max El. Az.
Max El.
End time (UTC)
End Az.
7 mins2025-05-10 01:35:51.883Z125.898° SE2025-05-10 01:38:51.883Z78.924° E28.729°2025-05-10 01:42:51.883Z10.114° NNE
6 mins2025-05-10 03:15:51.883Z226.928° WSW2025-05-10 03:17:51.883Z260.99° W23.183°2025-05-10 03:21:51.883Z318.652° NNW
9 mins2025-05-10 15:20:51.883Z11.255° NNE2025-05-10 15:25:51.883Z265.005° W44.628°2025-05-10 15:29:51.883Z199.023° SSW
|